IRIDIUM 61 [+]

Last updated on Wed May 30 2018 00:19:59 GMT+0000 (Coordinated Universal Time)

1 25263U 98018B 18149.59434540 -.00000031 00000-0 -16600-4 0 9994 2 25263 86.4248 174.1113 0002489 85.3801 274.7681 14.38601549 56364
UTC large
Height (km)
Speed (km/s)
/
Latitude / Longitude
Inclination (degrees)
Orbital Period (minutes)
Azimuth
Elevation
Range (km)
Doppler Factor

Next 0 passes for location: London (51.5072 / 0.1276)

Sorry there are no passes over London.